TimePST,TemperatureF,Dew PointF,Humidity,Sea Level PressureIn,VisibilityMPH,Wind Direction,Wind SpeedMPH,Gust SpeedMPH,PrecipitationIn,Events,Conditions,WindDirDegrees,DateUTC
12:56 AM,1.0,-4.0,79,30.28,10.0,NNE,3.5,-,N/A,,Clear,30,2013-12-09 08:56:00
1:56 AM,-0.0,-5.1,79,30.30,10.0,Calm,Calm,-,N/A,,Clear,0,2013-12-09 09:56:00
2:56 AM,1.9,-5.1,72,30.31,10.0,Calm,Calm,-,N/A,,Clear,0,2013-12-09 10:56:00
3:56 AM,-0.0,-6.0,76,30.33,10.0,Calm,Calm,-,N/A,,Clear,0,2013-12-09 11:56:00
4:56 AM,-2.0,-7.1,79,30.34,10.0,SE,4.6,-,N/A,,Clear,130,2013-12-09 12:56:00
5:56 AM,-4.0,-9.0,79,30.36,10.0,Calm,Calm,-,N/A,,Clear,0,2013-12-09 13:56:00
6:12 AM,-2.9,-8.0,79,30.50,10.0,Calm,Calm,-,N/A,,Clear,0,2013-12-09 14:12:00
6:56 AM,-2.0,-8.0,76,30.38,10.0,Calm,Calm,-,N/A,,Partly Cloudy,0,2013-12-09 14:56:00
7:56 AM,3.0,-2.0,80,30.41,10.0,Calm,Calm,-,N/A,,Partly Cloudy,0,2013-12-09 15:56:00
8:56 AM,7.0,3.0,84,30.41,10.0,SSE,3.5,-,N/A,,Partly Cloudy,160,2013-12-09 16:56:00
9:56 AM,10.0,6.1,84,30.41,10.0,Calm,Calm,-,N/A,,Partly Cloudy,0,2013-12-09 17:56:00
10:56 AM,14.0,8.1,77,30.40,10.0,Calm,Calm,-,N/A,,Partly Cloudy,0,2013-12-09 18:56:00
11:56 AM,18.0,8.1,65,30.39,10.0,NE,9.2,-,N/A,,Partly Cloudy,50,2013-12-09 19:56:00
12:56 PM,17.1,7.0,65,30.39,10.0,NE,8.1,-,N/A,,Clear,50,2013-12-09 20:56:00
1:56 PM,18.0,7.0,62,30.38,10.0,NNE,9.2,-,N/A,,Clear,30,2013-12-09 21:56:00
2:56 PM,18.0,7.0,62,30.38,10.0,NNE,5.8,-,N/A,,Clear,20,2013-12-09 22:56:00
3:56 PM,18.0,7.0,62,30.37,10.0,NNE,4.6,-,N/A,,Clear,20,2013-12-09 23:56:00
4:56 PM,14.0,6.1,71,30.36,10.0,NW,3.5,-,N/A,,Clear,320,2013-12-10 00:56:00
5:56 PM,10.0,3.9,76,30.35,10.0,NE,4.6,-,N/A,,Clear,50,2013-12-10 01:56:00
6:56 PM,10.0,3.9,76,30.36,10.0,NE,5.8,-,N/A,,Clear,50,2013-12-10 02:56:00
7:56 PM,6.1,1.0,80,30.36,10.0,NE,5.8,-,N/A,,Clear,40,2013-12-10 03:56:00
8:56 PM,6.1,1.0,80,30.36,10.0,NE,4.6,-,N/A,,Clear,40,2013-12-10 04:56:00
9:56 PM,5.0,-0.0,80,30.37,10.0,NE,4.6,-,N/A,,Clear,40,2013-12-10 05:56:00
10:56 PM,3.9,-0.9,80,30.37,10.0,NNW,5.8,-,N/A,,Clear,330,2013-12-10 06:56:00
11:56 PM,3.9,-2.0,76,30.36,10.0,Calm,Calm,-,N/A,,Clear,0,2013-12-10 07:56:00